Location: Milton Keynes
(52.0316°N, 0.7531°W)
Time: 00:56:04
(UTC+00:00)

N. Korean satellite - Pass Details

Date: 31 January 2019
Orbit: 457 x 510 km, 97.2° (Epoch: 18 February)

Event Time Altitude Azimuth Distance (km) Brightness Sun altitude
Rises 18:49:23 0° 222° (SW) 2,611 11.0 -18.6°
Reaches altitude 10° 18:53:33 10° 268° (W) 1,737 10.6 -19.2°
Maximum altitude 18:53:58 10° 274° (W) 1,729 10.6 -19.3°
Drops below altitude 10° 18:54:23 10° 281° (W) 1,739 10.5 -19.3°
Sets 18:58:35 0° 327° (NNW) 2,630 10.7 -20.0°
